Tracking 35331 objects as of 14-Sep-2026
HD Live streaming from Space Station
objects crossing your sky now

FALCON 9 DEB


FALCON 9 DEB is no longer on orbit


NORAD ID: 52654
Int'l Code: 2022-052BJ
Launch date: May 14, 2022
Source: United States (US)
Launch site: AIR FORCE EASTERN TEST RANGE (AFETR)
Decay date: 2022-06-26

Note: This is SATELLITE DEBRIS
Your satellite tracking list
Your tracking list is empty




NASA's NSSDC Master Catalog

Two Line Element Set (TLE):
1 52654U 22052BJ  22176.52449351  .07345358  12476-4  38996-3 0  9991
2 52654  53.1805 224.8530 0004524 319.5189  40.5523 16.42483745  6684
Source of the keplerian elements: AFSPC